Columbia, SC

6:01 AM EST on December 16, 2019 (GMT -0500)
Columbia Metro

Weather History for KCAE - October, 2019

Change the Weather History Date:

Thursday, October 24, 2019

  Actual Average Record
Temperature  
Mean Temperature 59 °F 61 °F  
Max Temperature 77 °F 74 °F 89 °F (2001)
Min Temperature 41 °F 49 °F 31 °F (2006)
Degree Days  
Heating Degree Days 6 5  
Month to date heating degree days 35 70  
Since 1 July heating degree days 35 78  
Cooling Degree Days 0 2  
Month to date cooling degree days 176 78  
Year to date cooling degree days 2695 2145  
Growing Degree Days 9 (Base 50)    
Moisture  
Dew Point 46 °F    
Average Humidity 65    
Maximum Humidity 92    
Minimum Humidity 38    
Precipitation  
Precipitation 0.00 in 0.09 in 1.49 in (2008)
Month to date precipitation 1.42 2.56  
Year to date precipitation 29.01 38.02  
Sea Level Pressure  
Sea Level Pressure 30.25 in    
Wind  
Wind Speed 3 mph (East)    
Max Wind Speed 12 mph    
Max Gust Speed 13 mph    
Visibility 10 miles    
Events Fog    
T = Trace of Precipitation, MM = Missing Value Source: NWS Daily Summary

Daily Weather History Graph

Daily Weather History Graph

Search for Another Location

Airport or City:

Astronomy

Oct. 24, 2019 Rise Set
Actual Time 7:36 AM EDT 6:40 PM EDT
Civil Twilight 7:11 AM EDT 7:05 PM EDT
Nautical Twilight 6:41 AM EDT 7:34 PM EDT
Astronomical Twilight 6:12 AM EDT 8:03 PM EDT
Moon 3:21 AM EDT (10/24) 4:52 PM EDT (10/24)
Length of Visible Light 11h 54m
Length of Day
11h 03m
Waning Crescent, 17% of the Moon is Illuminated
Oct 24
Waning Crescent
Oct 27
New
Nov 4
First Quarter
Nov 12
Full
Nov 19
Last Quarter

Hourly Weather History & Observations

Time (EDT) Temp. Windchill Dew Point Humidity Pressure Visibility Wind Dir Wind Speed Gust Speed Precip Events Conditions
12:56 AM 46.9 °F - 43.0 °F 86% 30.22 in 10.0 mi WSW 3.5 mph - N/A   Clear
1:56 AM 46.0 °F - 43.0 °F 89% 30.22 in 10.0 mi Calm Calm - N/A   Clear
2:56 AM 45.0 °F - 42.1 °F 90% 30.22 in 10.0 mi Calm Calm - N/A   Clear
3:56 AM 44.1 °F - 41.0 °F 89% 30.22 in 10.0 mi Calm Calm - N/A   Clear
4:56 AM 43.0 °F - 39.9 °F 89% 30.23 in 10.0 mi Calm Calm - N/A   Clear
5:56 AM 43.0 °F - 39.9 °F 89% 30.25 in 10.0 mi Calm Calm - N/A   Clear
6:56 AM 42.1 °F - 39.0 °F 89% 30.26 in 10.0 mi Calm Calm - N/A   Clear
7:56 AM 42.1 °F 39.2 °F 39.0 °F 89% 30.28 in 10.0 mi SSW 4.6 mph - N/A Fog Patches of Fog
8:56 AM 46.9 °F - 42.1 °F 83% 30.30 in 10.0 mi Calm Calm - N/A Fog Patches of Fog
9:56 AM 55.0 °F - 46.0 °F 72% 30.30 in 10.0 mi Calm Calm - N/A   Scattered Clouds
10:56 AM 64.0 °F - 46.0 °F 52% 30.30 in 10.0 mi ESE 3.5 mph - N/A   Scattered Clouds
11:56 AM 71.1 °F - 44.1 °F 38% 30.29 in 10.0 mi NE 3.5 mph - N/A   Scattered Clouds
12:56 PM 72.0 °F - 46.0 °F 40% 30.27 in 10.0 mi East 9.2 mph - N/A   Scattered Clouds
1:56 PM 73.0 °F - 48.0 °F 41% 30.24 in 10.0 mi East 4.6 mph - N/A   Scattered Clouds
2:56 PM 73.0 °F - 48.0 °F 41% 30.22 in 10.0 mi Variable 4.6 mph - N/A   Scattered Clouds
3:56 PM 75.0 °F - 48.9 °F 40% 30.22 in 10.0 mi ESE 8.1 mph - N/A   Mostly Cloudy
4:56 PM 73.9 °F - 50.0 °F 43% 30.21 in 10.0 mi ESE 5.8 mph - N/A   Mostly Cloudy
5:56 PM 73.0 °F - 51.1 °F 46% 30.20 in 10.0 mi East 4.6 mph - N/A   Mostly Cloudy
6:56 PM 70.0 °F - 51.1 °F 51% 30.22 in 10.0 mi North 4.6 mph - N/A   Mostly Cloudy
7:56 PM 69.1 °F - 51.1 °F 53% 30.24 in 10.0 mi NNE 5.8 mph - N/A   Mostly Cloudy
8:56 PM 66.9 °F - 51.1 °F 57% 30.24 in 10.0 mi ENE 3.5 mph - N/A   Mostly Cloudy
9:56 PM 64.9 °F - 52.0 °F 63% 30.25 in 10.0 mi Calm Calm - N/A   Mostly Cloudy
10:56 PM 60.1 °F - 53.1 °F 78% 30.27 in 10.0 mi Calm Calm - N/A   Mostly Cloudy
11:56 PM 61.0 °F - 54.0 °F 78% 30.27 in 10.0 mi Calm Calm - N/A   Scattered Clouds